Flag for Faroe Islands Weather past 2 weeks in Tórshavn, Faroe Islands, Faroe Islands

46 °F

Passing clouds.

Feels Like: 43 °F
Forecast: 44 / 52 °F
Wind: 7 mph from South

Location: Soervaag / Vagar

Current Time: Oct 7, 2015 at 8:46:12 PM

Latest Report: Oct 7, 2015 at 8:20 PM

Visibility: N/A

Pressure: 29.83 "Hg

Humidity: 93%

Dew point: 45 °F

Location of TórshavnLocation

Historic Weather in Tórshavn — Graph


Tórshavn temperature yesterday

Maximum temperature yesterday: 54 °F (at 4:50 AM)
Minimum temperature yesterday: 52 °F (at 12:20 AM)
Average temperature yesterday: 53 °F

Past Weeks' High & Low Weather Summary

High54 °F (Sep 24, 1:50 PM)100% (Sep 23, 1:20 AM)30.51 "Hg (Sep 23, 1:20 AM)
Low37 °F (Oct 4, 12:20 AM)71% (Sep 25, 10:50 PM)29.27 "Hg (Oct 6, 4:20 AM)
Average50 °F90%29.89 "Hg
* Reported Sep 22 7:20 PM — Oct 7 7:50 PM, Tórshavn, Weather by CustomWeather, © 2015

Note: Actual official high and low records may vary slightly from our data, if they occured in-between our weather recording intervals... More about our weather records


Tórshavn weather history for previous 24 hours

Time TempWeatherWind HumidityBarometerVisibility
7:50 PM
Wed, Oct 7
46 °FPassing clouds.6 mph93%29.83 "HgN/A
7:20 PM46 °FPartly sunny.7 mph93%29.83 "HgN/A
6:50 PM46 °FPartly sunny.8 mph93%29.80 "HgN/A
6:20 PM46 °FCool.8 mph93%29.80 "HgN/A
5:50 PM48 °FPassing clouds.8 mph87%29.80 "HgN/A
5:20 PM50 °FCool.8 mph82%29.80 "HgN/A
4:50 PM50 °FCool.9 mph88%29.80 "HgN/A
4:20 PM52 °FCool.7 mph82%29.80 "HgN/A
3:50 PM52 °FCool.8 mph82%29.77 "HgN/A
3:20 PM52 °FCool.9 mph82%29.77 "HgN/A
2:50 PM52 °FPassing clouds.8 mph82%29.77 "HgN/A
2:20 PM52 °FCool.8 mph77%29.77 "HgN/A
1:50 PM52 °FPassing clouds.8 mph82%29.77 "HgN/A
1:20 PM52 °FPassing clouds.9 mph82%29.77 "HgN/A
12:50 PM52 °FPassing clouds.8 mph82%29.74 "HgN/A
12:20 PM52 °FPassing clouds.8 mph77%29.74 "HgN/A
11:52 AM52 °FPassing clouds.7 mph82%29.74 "HgN/A
11:20 AM50 °FScattered clouds.7 mph88%29.74 "HgN/A
10:51 AM50 °FPassing clouds.5 mph88%29.71 "HgN/A
10:20 AM48 °FScattered clouds.5 mph87%29.71 "HgN/A
9:50 AM48 °FPassing clouds.6 mph94%29.71 "HgN/A
9:20 AM48 °FPartly sunny.6 mph94%29.68 "HgN/A
8:50 AM48 °FPartly sunny.6 mph94%29.68 "HgN/A
8:20 AM46 °FPassing clouds.No wind93%29.65 "HgN/A
7:50 AM45 °FPassing clouds.No wind93%29.65 "HgN/A
7:20 AM45 °FPassing clouds.No wind93%29.62 "HgN/A
6:50 AM46 °FPartly cloudy.No wind93%29.62 "HgN/A
6:20 AM46 °FPassing clouds.No wind93%29.59 "HgN/A
5:50 AM46 °FOvercast.No wind93%29.59 "HgN/A
5:20 AM46 °FPassing clouds.No wind93%29.59 "HgN/A
4:50 AM46 °FSprinkles. Overcast.No wind93%29.56 "HgN/A
4:20 AM46 °FOvercast.No wind93%29.56 "HgN/A
3:50 AM46 °FSprinkles. Mostly cloudy.No wind100%29.53 "HgN/A
3:20 AM46 °FMostly cloudy.9 mph100%29.53 "HgN/A
2:50 AM48 °FSprinkles. Fog.7 mph100%29.53 "Hg2 mi
2:20 AM48 °FDrizzle. Low clouds.7 mph100%29.50 "Hg4 mi
1:50 AM48 °FDrizzle. Fog.9 mph100%29.50 "Hg1 mi
1:20 AM50 °FDrizzle. Fog.6 mph94%29.47 "Hg1 mi
12:50 AM50 °FDrizzle. Fog.8 mph100%29.47 "Hg2 mi
12:20 AM50 °FDrizzle. Fog.8 mph100%29.47 "Hg1 mi
11:50 PM
Tue, Oct 6
52 °FDrizzle. Low clouds.9 mph100%29.45 "Hg2 mi
11:20 PM52 °FFog.7 mph94%29.45 "Hg1 mi
10:20 PM52 °FMostly cloudy.8 mph94%29.42 "Hg1 mi
9:50 PM52 °FFog.9 mph94%29.39 "Hg1 mi
9:20 PM52 °FLight rain. Low clouds.10 mph94%29.39 "Hg4 mi
8:50 PM52 °FLight rain. Low clouds.13 mph100%29.39 "Hg6 mi
8:20 PM52 °FLight rain. Low clouds.12 mph100%29.39 "HgN/A
Weather by CustomWeather, © 2015

See weather overviewHow to use our weather pages